Location: Unspecified
(0.0000°N, 0.0000°E)
Time: 06:18:26
(UTC+00:00)

CZ-3 Stage 3 - Visible Passes

Search period start: 21 April 2019 00:00
Search period end: 01 May 2019 00:00
Orbit: 491 x 34700 km, 30.5° (Epoch: 20 April)

Date Brightness Start Highest point End Pass type
(mag) Time Alt. Az. Time Alt. Az. Time Alt. Az.
21 Apr 6.8 05:21:57 10° NW 09:26:28 80° NNW 14:54:54 10° SE visible
22 Apr 6.3 01:45:25 25° N 01:49:02 27° N 11:08:42 10° SE visible
23 Apr 5.1 18:10:53 10° SW 18:19:46 15° S 18:23:56 10° SSE visible
24 Apr 6.8 05:11:50 10° NW 09:13:30 81° NNW 14:44:49 10° SE visible
25 Apr 6.3 01:35:18 24° N 01:39:12 26° NNE 10:58:23 10° SE visible
27 Apr 6.8 05:01:43 10° NW 09:00:29 82° NNW 14:34:44 10° SE visible
28 Apr 6.3 01:25:09 24° N 01:29:21 26° NNE 10:48:03 10° SE visible
30 Apr 6.8 04:51:35 10° NW 08:47:26 83° NNW 14:24:39 10° SE visible
